TimeCDT,TemperatureF,Dew PointF,Humidity,Sea Level PressureIn,VisibilityMPH,Wind Direction,Wind SpeedMPH,Gust SpeedMPH,PrecipitationIn,Events,Conditions,WindDirDegrees,DateUTC
2:58 AM,56.7,54.7,93,30.18,10.0,NNE,11.5,-,N/A,,Overcast,20,2013-04-25 07:58:00
3:43 AM,55.4,53.6,94,30.18,10.0,NNE,10.4,-,N/A,,Overcast,30,2013-04-25 08:43:00
3:58 AM,56.1,54.0,92,30.19,10.0,NNE,11.5,-,N/A,,Overcast,20,2013-04-25 08:58:00
4:43 AM,55.4,53.6,94,30.20,10.0,NNE,11.5,-,N/A,,Overcast,20,2013-04-25 09:43:00
4:58 AM,55.9,54.0,93,30.20,10.0,NNE,13.8,18.4,N/A,,Overcast,20,2013-04-25 09:58:00
5:13 AM,55.4,53.6,94,30.19,10.0,NNE,12.7,-,N/A,,Overcast,30,2013-04-25 10:13:00
5:18 AM,55.4,53.6,94,30.19,10.0,NNE,11.5,-,N/A,,Overcast,30,2013-04-25 10:18:00
5:23 AM,55.4,53.6,94,30.19,10.0,NNE,15.0,-,N/A,,Overcast,20,2013-04-25 10:23:00
5:38 AM,55.4,53.6,94,30.19,10.0,NNE,15.0,-,N/A,,Overcast,20,2013-04-25 10:38:00
6:05 AM,55.4,53.6,94,30.19,10.0,NNE,13.8,-,N/A,,Overcast,30,2013-04-25 11:05:00
6:58 AM,55.6,53.1,91,30.23,10.0,NNE,11.5,-,N/A,,Overcast,20,2013-04-25 11:58:00
7:33 AM,55.4,53.6,94,30.25,10.0,NNE,10.4,-,N/A,,Overcast,20,2013-04-25 12:33:00
7:48 AM,55.4,51.8,88,30.25,10.0,NNE,9.2,17.3,N/A,,Overcast,30,2013-04-25 12:48:00
7:58 AM,55.6,52.7,90,30.26,10.0,NNE,11.5,-,N/A,,Overcast,20,2013-04-25 12:58:00
8:23 AM,55.4,53.6,94,30.26,10.0,North,10.4,-,N/A,,Overcast,10,2013-04-25 13:23:00
8:58 AM,55.6,52.7,90,30.27,10.0,NNE,11.5,-,N/A,,Overcast,20,2013-04-25 13:58:00
9:28 AM,57.2,53.6,88,30.28,10.0,NNE,15.0,-,N/A,,Overcast,20,2013-04-25 14:28:00
9:58 AM,57.2,53.6,88,30.29,10.0,NNE,13.8,-,N/A,,Overcast,30,2013-04-25 14:58:00
10:33 AM,60.8,53.6,77,30.29,10.0,NNE,9.2,-,N/A,,Overcast,20,2013-04-25 15:33:00
10:58 AM,63.1,55.0,75,30.30,10.0,North,6.9,-,N/A,,Partly Cloudy,10,2013-04-25 15:58:00
11:58 AM,66.9,56.5,69,30.30,10.0,Variable,5.8,-,N/A,,Clear,0,2013-04-25 16:58:00
12:58 PM,70.2,57.9,65,30.30,10.0,Variable,2.3,-,N/A,,Mostly Cloudy,0,2013-04-25 17:58:00
1:58 PM,72.9,59.7,63,30.28,10.0,North,5.8,-,N/A,,Clear,360,2013-04-25 18:58:00
2:58 PM,74.7,60.1,60,30.25,10.0,NE,6.9,-,N/A,,Clear,40,2013-04-25 19:58:00
3:58 PM,75.6,59.0,56,30.24,10.0,NNE,9.2,-,N/A,,Clear,30,2013-04-25 20:58:00
4:58 PM,75.6,57.4,53,30.23,10.0,NNE,11.5,-,N/A,,Clear,30,2013-04-25 21:58:00
5:58 PM,73.6,56.7,55,30.23,10.0,NNE,9.2,-,N/A,,Clear,30,2013-04-25 22:58:00
6:58 PM,70.2,53.1,55,30.23,10.0,NNE,10.4,-,N/A,,Clear,20,2013-04-25 23:58:00
7:58 PM,67.5,50.2,54,30.24,10.0,NNE,8.1,-,N/A,,Clear,20,2013-04-26 00:58:00
8:58 PM,64.9,49.6,58,30.26,10.0,NNE,8.1,-,N/A,,Clear,30,2013-04-26 01:58:00
9:58 PM,63.0,50.5,64,30.28,10.0,NNE,5.8,-,N/A,,Clear,20,2013-04-26 02:58:00
10:58 PM,61.0,50.5,68,30.28,10.0,NNE,5.8,-,N/A,,Clear,30,2013-04-26 03:58:00
11:58 PM,60.4,49.1,66,30.27,10.0,NE,6.9,-,N/A,,Clear,40,2013-04-26 04:58:00